Regional Weather Roundup
Issued by NWS

Home | Current Version | Previous Version | Text Only | Print | Product List | Glossary Off
Versions: 1 2 3 4 5 6 7 8 9 10 11 12 13 14 15 16 17 18 19 20 21 22 23 24 25 26 27 28 29 30 31 32 33 34 35 36 37 38 39 40 41 42 43 44 45 46 47 48 49 50

000
ASUS45 KBOU 030007
RWRCO

WEATHER ROUNDUP FOR COLORADO
NATIONAL WEATHER SERVICE DENVER/BOULDER CO
600 PM MDT WED SEP 02 2015

NOTE: "FAIR" INDICATES FEW OR NO CLOUDS BELOW 12000 FEET WITH NO
SIGNIFICANT WEATHER AND/OR OBSTRUCTIONS TO VISIBILITY.

COZ001>005-013-030-031-030100-
...NORTHWEST COLORADO...

CITY           SKY/WX    TMP DP  RH WIND       PRES   REMARKS
CRAIG          PTSUNNY   69  53  56 S7        30.11S
HAYDEN         NOT AVBL
MEEKER         MOSUNNY   79  43  27 S10       30.11F
MOUNT WERNER   NOT AVBL
STEAMBOAT SPGS MOSUNNY   76  40  27 E3        30.16F
WALDEN         PTSUNNY   72  36  26 SW13      30.25S
$$

COZ006>008-011-030100-
...WEST CENTRAL VALLEYS...

CITY           SKY/WX    TMP DP  RH WIND       PRES   REMARKS
GRAND JUNCTION CLOUDY    86  47  25 W10       30.01S
MONTROSE       PTSUNNY   81  48  31 E9        30.11S
EAGLE          MOSUNNY   79  43  27 W9        30.16F
RIFLE          MOSUNNY   79  51  37 E6        30.07F
DELTA          PTSUNNY   86  47  25 E7        30.04F HAZE
NUCLA          PTSUNNY   86  36  16 SW13G18   30.13S
$$

COZ017>023-064>068-030100-
...SOUTHWEST COLORADO...

CITY           SKY/WX    TMP DP  RH WIND       PRES   REMARKS
DURANGO        CLOUDY    77  46  33 SW12      30.19S
CORTEZ         SUNNY     79  48  33 SW12      30.13S
PAGOSA SPRINGS CLOUDY    74  38  27 W12       30.26S
TELLURIDE      PTSUNNY   63  45  50 S9        30.39R THUNDER
WOLF CREEK PAS NOT AVBL
$$

COZ009-010-012-014-032>034-037-058>063-030100-
...CENTRAL COLORADO...

CITY           SKY/WX    TMP DP  RH WIND       PRES   REMARKS
ASPEN          PTSUNNY   72  43  35 W6        30.23F
BUENA VISTA    PTSUNNY   74  34  23 W10       30.24F
COPPER MTN     MOSUNNY   59  30  33 W10G18    30.57F THUNDER
BERTHOUD PASS  PTSUNNY   50  37  62 NW16G24   30.62F
COTTONWOOD PAS PTSUNNY   68  32  26 NW5       30.41S THUNDER
GUNNISON       CLOUDY    61  50  67 N3        30.31R THUNDER
KREMMLING      PTSUNNY   73  32  21 SW6       30.21S
LEADVILLE      TSTM      58  38  47 SW17G24   30.40R
MONARCH PASS   TSTM      50  36  57 SW26G32   30.69S
SALIDA         PTSUNNY   75  36  23 S14G28    30.29S
SUNLIGHT       MOSUNNY   61  46  59 CALM      30.50S
WILKERSON PASS CLOUDY    59  30  33 SW7       30.54S
$$

COZ069>075-030100-
...SAN LUIS VALLEY/SANGRE DE CRISTO MOUNTAINS...

CITY           SKY/WX    TMP DP  RH WIND       PRES   REMARKS
ALAMOSA        CLOUDY    70  41  34 NW13      30.24R
LA VETA PASS   CLOUDY    64  34  32 CALM      30.44R
SAGUACHE       CLOUDY    66  43  42 CALM      30.32R
$$

COZ035-036-038>040-030100-
...NORTHERN COLORADO FRONT RANGE...

CITY           SKY/WX    TMP DP  RH WIND       PRES   REMARKS
DENVER INTL AP PTSUNNY   88  34  14 SE7       30.01S
DMNS CITY PARK   N/A     85  36  17 SE8       30.00S
AURORA         PTSUNNY   87  36  16 S7        30.03F
FRONT RANGE AP NOT AVBL
ERIE MUNI ARPT MOSUNNY   87  33  14 E5        29.98F
BOULDER MUN AP MOSUNNY   86  41  20 CALM      29.99F
CENTENNIAL     PTSUNNY   86  35  16 S8        30.05S
BROOMFIELD     PTSUNNY   86  37  17 SE3       30.03
FORT COLLINS   MOSUNNY   84  43  23 S5        29.95S
LONGMONT       MOSUNNY   90  38  15 CALM      29.99F
$$

COZ041-046-047-076>085-087-088-030100-
...PIKES PEAK/PALMER DIVIDE AND SOUTHERN FOOTHILLS...

CITY           SKY/WX    TMP DP  RH WIND       PRES   REMARKS
COLO. SPRINGS  PTSUNNY   84  36  18 E8        30.09S
A. F. ACADEMY  PTSUNNY   81  38  21 S8        30.11S
ELLICOTT       PTSUNNY  N/A N/A N/A E7        30.08F
FALCON         PTSUNNY   79  38  23 MISG      30.16S
FORT CARSON    PTSUNNY   84  41  21 SE10      30.05S
LIMON          MOSUNNY   85  38  18 S5        30.03S
MONUMENT HILL  MOSUNNY   73  43  33 E3        30.17R
TRINIDAD       CLOUDY    79  45  29 S10       30.06F
$$

COZ042>045-048>051-090-091-030100-
...NORTHEAST COLORADO...

CITY           SKY/WX    TMP DP  RH WIND       PRES   REMARKS
GREELEY ARPT   MOSUNNY   91  36  14 CALM      29.96S
AKRON          SUNNY     90  37  15 CALM      29.96S
BURLINGTON     SUNNY     89  44  20 W7        29.93S
WRAY           CLOUDY    95  40  14 SE7       29.88S
STERLING       SUNNY     93  43  17 S5        29.89S
HOLYOKE        MOSUNNY   95  46  18 CALM      29.89S
FORT MORGAN    SUNNY     88  39  18 SE7       29.95F
$$

COZ086-089-092>099-030100-
...SOUTHEAST COLORADO...

CITY           SKY/WX    TMP DP  RH WIND       PRES   REMARKS
PUEBLO         PTSUNNY   91  37  15 E13       29.95F
LA JUNTA       CLOUDY    94  39  14 N6        29.92S
LAMAR          PTSUNNY   93  54  26 CALM      29.87F
SPRINGFIELD      N/A     89  48  24 S12       29.95S
$$




USA.gov is the U.S. government's official web portal to all federal, state and local government web resources and services.